Location: Newark
(34.1333°N, 7.9667°W)
Time: 20:25:31
(UTC+00:00)

Transit 2A - Pass Details

Date: 19 June 2021
Orbit: 598 x 960 km, 66.7° (Epoch: 01 August)

Event Time Altitude Azimuth Distance (km) Brightness Sun altitude
Rises 17:37:18 0° 241° (WSW) 2,868 9.7 24.0°
Reaches altitude 10° 17:40:07 10° 259° (W) 1,943 9.5 23.5°
Maximum altitude 17:43:14 19° 306° (NW) 1,435 9.1 22.8°
Drops below altitude 10° 17:46:22 10° 352° (N) 1,945 8.5 22.2°
Sets 17:49:11 0° 11° (N) 2,871 9.0 21.6°
